Location: Austin
(30.3000°N, 97.7500°W)
Time: 21:45:08
(UTC-06:00)

Nadezhda 4 Rocket - Pass Details

Date: 03 December 2025
Orbit: 949 x 991 km, 82.9° (Epoch: 07 December)

Event Time Altitude Azimuth Distance (km) Brightness Sun altitude
Rises 05:46:38 0° 182° (S) 3,687 7.2 -18.0°
Reaches altitude 10° 05:49:09 10° 182° (S) 2,742 6.5 -17.5°
Maximum altitude 05:55:27 85° 94° (E) 998 4.1 -16.2°
Drops below altitude 10° 06:01:47 10° 7° (N) 2,747 6.3 -14.9°
Sets 06:04:18 0° 7° (N) 3,694 6.9 -14.4°
